When you browse on this site, cookies collect data to enhance your experience and personalize the content and advertising you see.
Visit our Privacy Policy to learn more. By continuing to use the site, you agree to this use of cookies and data.
  • In Switzerland
  • List of Countries
  • For 7 days
  • Water Temperature
  • Satellite Maps
  • Weather Map
  • Weather Widgets
  • user-avatar
    Login

    Hourly Weather Solden

    Today, 27 May, Monday

    Time Temperature Precipitation Wind Pressure Humidity
    00:00 +2°C° 0 mm 1 mps 580 mmHg 87%
    01:00 +2°C° 0 mm 1 mps 580 mmHg 86%
    02:00 +2°C° 0 mm 1 mps 580 mmHg 86%
    03:00 +2°C° 0 mm 1 mps 579 mmHg 87%
    04:00 +2°C° 0 mm 1 mps 579 mmHg 87%
    05:00 +4°C° 0 mm 1 mps 580 mmHg 83%
    06:00 +5°C° 0 mm 1 mps 580 mmHg 78%
    07:00 +6°C° 0 mm 1 mps 581 mmHg 74%
    08:00 +7°C° 0.2 mm 1 mps 581 mmHg 70%
    09:00 +9°C° 0.2 mm 1 mps 582 mmHg 66%
    10:00 +10°C° 0.2 mm 1 mps 582 mmHg 62%
    11:00 +10°C° 0.2 mm 1 mps 582 mmHg 60%
    12:00 +11°C° 0.2 mm 1 mps 582 mmHg 58%
    13:00 +11°C° 0.2 mm 1 mps 582 mmHg 57%
    14:00 +10°C° 0.2 mm 2 mps 582 mmHg 60%
    15:00 +9°C° 0.2 mm 2 mps 581 mmHg 63%
    16:00 +9°C° 0.2 mm 2 mps 581 mmHg 67%
    17:00 +7°C° 0.6 mm 2 mps 580 mmHg 75%
    18:00 +7°C° 0.6 mm 1 mps 579 mmHg 84%
    19:00 +6°C° 0.6 mm 1 mps 578 mmHg 92%
    20:00 +5°C° 1.5 mm 1 mps 578 mmHg 94%
    21:00 +4°C° 1.5 mm 1 mps 578 mmHg 95%
    22:00 +3°C° 1.5 mm 0 mps 577 mmHg 97%
    23:00 +3°C° 2.5 mm 0 mps 577 mmHg 97%

    Tomorrow, 28 May, Tuesday

    Time Temperature Precipitation Wind Pressure Humidity
    00:00 +2°C° 2.5 mm 0 mps 577 mmHg 97%
    01:00 +2°C° 2.5 mm 0 mps 577 mmHg 97%
    02:00 +2°C° 2 mm 0 mps 576 mmHg 97%
    03:00 +3°C° 2 mm 1 mps 576 mmHg 97%
    04:00 +3°C° 2 mm 1 mps 576 mmHg 96%
    05:00 +3°C° 1 mm 1 mps 576 mmHg 95%
    06:00 +4°C° 1 mm 1 mps 576 mmHg 94%
    07:00 +4°C° 1 mm 1 mps 576 mmHg 92%
    08:00 +5°C° 0.7 mm 1 mps 577 mmHg 87%
    09:00 +7°C° 0.7 mm 1 mps 578 mmHg 81%
    10:00 +8°C° 0.7 mm 1 mps 579 mmHg 76%
    11:00 +8°C° 1.2 mm 1 mps 579 mmHg 76%
    12:00 +8°C° 1.2 mm 1 mps 579 mmHg 75%
    13:00 +8°C° 1.2 mm 1 mps 579 mmHg 75%
    14:00 +6°C° 1.3 mm 2 mps 578 mmHg 80%
    15:00 +5°C° 1.3 mm 2 mps 578 mmHg 84%
    16:00 +4°C° 1.3 mm 2 mps 577 mmHg 89%
    17:00 +3°C° 0.7 mm 2 mps 577 mmHg 90%
    18:00 +2°C° 0.7 mm 2 mps 577 mmHg 90%
    19:00 0°C° 0.7 mm 3 mps 577 mmHg 91%
    20:00 0°C° 0.2 mm 3 mps 577 mmHg 91%
    21:00 -1°C° 0.2 mm 3 mps 577 mmHg 90%
    22:00 -1°C° 0.2 mm 3 mps 578 mmHg 90%
    23:00 -2°C° 0.3 mm 3 mps 577 mmHg 90%

    Day after tomorrow, 29 May, Wednesday

    Time Temperature Precipitation Wind Pressure Humidity
    00:00 -2°C° 0.3 mm 3 mps 577 mmHg 89%
    01:00 -2°C° 0.3 mm 3 mps 577 mmHg 89%
    02:00 -2°C° 0.3 mm 3 mps 578 mmHg 89%
    03:00 -2°C° 0.3 mm 3 mps 578 mmHg 90%
    04:00 -4°C° 0.3 mm 3 mps 578 mmHg 90%
    05:00 -2°C° 0.3 mm 3 mps 578 mmHg 89%
    06:00 -2°C° 0.3 mm 3 mps 579 mmHg 88%
    07:00 -1°C° 0.3 mm 3 mps 579 mmHg 87%
    08:00 0°C° 0.2 mm 3 mps 580 mmHg 80%
    09:00 +1°C° 0.2 mm 3 mps 581 mmHg 73%
    10:00 +2°C° 0.2 mm 3 mps 582 mmHg 66%
    11:00 +3°C° 0.1 mm 3 mps 582 mmHg 63%
    12:00 +4°C° 0.1 mm 3 mps 583 mmHg 60%
    13:00 +5°C° 0.1 mm 3 mps 583 mmHg 56%
    14:00 +5°C° 0.1 mm 3 mps 583 mmHg 56%
    15:00 +5°C° 0.1 mm 3 mps 584 mmHg 57%
    16:00 +5°C° 0.1 mm 3 mps 584 mmHg 57%
    17:00 +5°C° 0.1 mm 2 mps 583 mmHg 61%
    18:00 +5°C° 0.1 mm 2 mps 583 mmHg 66%
    19:00 +4°C° 0.1 mm 2 mps 583 mmHg 71%
    20:00 +2°C° 0 mm 2 mps 583 mmHg 75%
    21:00 +1°C° 0 mm 2 mps 583 mmHg 79%
    22:00 -2°C° 0 mm 2 mps 582 mmHg 83%
    23:00 -2°C° 0 mm 2 mps 582 mmHg 84%

    30 May, Thursday

    Time Temperature Precipitation Wind Pressure Humidity
    00:00 -3°C° 0 mm 2 mps 582 mmHg 84%
    01:00 -3°C° 0 mm 2 mps 582 mmHg 85%
    02:00 -3°C° 0 mm 2 mps 582 mmHg 84%
    03:00 -4°C° 0 mm 2 mps 582 mmHg 84%
    04:00 -4°C° 0 mm 2 mps 582 mmHg 84%
    05:00 -2°C° 0 mm 2 mps 583 mmHg 77%
    06:00 +1°C° 0 mm 2 mps 584 mmHg 70%
    07:00 +3°C° 0 mm 2 mps 585 mmHg 63%
    08:00 +5°C° 0 mm 2 mps 586 mmHg 59%
    09:00 +8°C° 0 mm 1 mps 587 mmHg 55%
    10:00 +9°C° 0 mm 1 mps 588 mmHg 51%
    11:00 +11°C° 0.1 mm 1 mps 588 mmHg 50%
    12:00 +12°C° 0.1 mm 1 mps 589 mmHg 50%
    13:00 +13°C° 0.1 mm 1 mps 589 mmHg 49%
    14:00 +12°C° 0.2 mm 1 mps 589 mmHg 52%
    15:00 +11°C° 0.2 mm 1 mps 588 mmHg 55%
    16:00 +11°C° 0.2 mm 1 mps 588 mmHg 58%
    17:00 +9°C° 0.1 mm 1 mps 587 mmHg 63%
    18:00 +8°C° 0.1 mm 1 mps 587 mmHg 68%
    19:00 +7°C° 0.1 mm 1 mps 587 mmHg 74%
    20:00 +6°C° 0 mm 1 mps 586 mmHg 77%
    21:00 +4°C° 0 mm 2 mps 586 mmHg 80%
    22:00 +2°C° 0 mm 2 mps 585 mmHg 83%
    23:00 +2°C° 0 mm 2 mps 585 mmHg 82%

    31 May, Friday

    Time Temperature Precipitation Wind Pressure Humidity
    00:00 +2°C° 0 mm 2 mps 585 mmHg 82%
    01:00 +2°C° 0 mm 2 mps 585 mmHg 81%
    02:00 +2°C° 0.1 mm 2 mps 585 mmHg 82%
    03:00 +2°C° 0.1 mm 2 mps 584 mmHg 83%
    04:00 +1°C° 0.1 mm 2 mps 584 mmHg 83%
    05:00 +4°C° 0.1 mm 1 mps 585 mmHg 80%
    06:00 +5°C° 0.1 mm 1 mps 585 mmHg 76%
    07:00 +7°C° 0.1 mm 1 mps 586 mmHg 73%
    08:00 +7°C° 0.6 mm 1 mps 586 mmHg 74%
    09:00 +7°C° 0.6 mm 1 mps 586 mmHg 75%
    10:00 +8°C° 0.6 mm 1 mps 586 mmHg 76%
    11:00 +7°C° 0.8 mm 2 mps 587 mmHg 76%
    12:00 +7°C° 0.8 mm 2 mps 587 mmHg 75%
    13:00 +7°C° 0.8 mm 3 mps 587 mmHg 75%
    14:00 +8°C° 0.2 mm 3 mps 587 mmHg 70%
    15:00 +8°C° 0.2 mm 3 mps 588 mmHg 66%
    16:00 +9°C° 0.2 mm 3 mps 588 mmHg 61%
    17:00 +8°C° 0.2 mm 3 mps 588 mmHg 64%
    18:00 +5°C° 0.2 mm 3 mps 587 mmHg 68%
    19:00 +4°C° 0.2 mm 3 mps 587 mmHg 72%
    20:00 +2°C° 0 mm 3 mps 587 mmHg 76%
    21:00 0°C° 0 mm 3 mps 586 mmHg 80%
    22:00 -2°C° 0 mm 3 mps 586 mmHg 85%
    23:00 -4°C° 0 mm 3 mps 586 mmHg 83%

    1 June, Saturday

    Time Temperature Precipitation Wind Pressure Humidity
    00:00 -5°C° 0 mm 3 mps 586 mmHg 82%
    01:00 -6°C° 0 mm 3 mps 585 mmHg 81%
    02:00 -6°C° 0 mm 3 mps 585 mmHg 76%
    03:00 -7°C° 0 mm 3 mps 585 mmHg 71%
    04:00 -7°C° 0 mm 3 mps 585 mmHg 66%
    05:00 -5°C° 0 mm 3 mps 586 mmHg 57%
    06:00 -2°C° 0 mm 2 mps 587 mmHg 49%
    07:00 +2°C° 0 mm 2 mps 589 mmHg 40%
    08:00 +4°C° 0 mm 2 mps 590 mmHg 35%
    09:00 +6°C° 0 mm 2 mps 590 mmHg 29%
    10:00 +8°C° 0 mm 2 mps 591 mmHg 24%
    11:00 +9°C° 0 mm 2 mps 592 mmHg 25%
    12:00 +10°C° 0 mm 3 mps 592 mmHg 26%
    13:00 +11°C° 0 mm 3 mps 592 mmHg 26%
    14:00 +10°C° 0 mm 3 mps 592 mmHg 28%
    15:00 +10°C° 0 mm 3 mps 591 mmHg 30%
    16:00 +10°C° 0 mm 3 mps 591 mmHg 32%
    17:00 +9°C° 0 mm 3 mps 591 mmHg 38%
    18:00 +7°C° 0 mm 2 mps 590 mmHg 44%
    19:00 +5°C° 0 mm 2 mps 589 mmHg 50%
    20:00 +3°C° 0 mm 2 mps 589 mmHg 54%
    21:00 +1°C° 0 mm 2 mps 588 mmHg 58%
    22:00 -1°C° 0 mm 2 mps 588 mmHg 62%
    23:00 -2°C° 0 mm 2 mps 588 mmHg 61%
    Show more